Regional Weather Roundup
Issued by NWS

Home | Current Version | Previous Version | Graphics & Text | Print | Product List | Glossary On
Versions: 1 2 3 4 5 6 7 8 9 10 11 12 13 14 15 16 17 18 19 20 21 22 23 24 25 26 27 28 29 30 31 32 33 34 35 36 37 38 39 40 41 42 43 44 45 46 47 48 49 50
000
ASUS43 KDTX 240901
RWRMI
MICHIGAN HOURLY REGIONAL WEATHER ROUNDUP
NATIONAL WEATHER SERVICE DETROIT/PONTIAC MI
500 AM EDT FRI OCT 24 2014

NOTE: "FAIR" INDICATES FEW OR NO CLOUDS BELOW 12,000 FEET WITH NO
SIGNIFICANT WEATHER AND/OR OBSTRUCTION TO VISIBILITY.

MIZ047>049-052>055-059>063-066>070-074>076-081>083-241000-
SOUTHEAST LOWER MICHIGAN

CITY           SKY/WX    TMP DP  RH WIND       PRES   REMARKS
ADRIAN         PTCLDY    33  32  96 W5        30.09F WCI  29
ALMA           CLEAR     39  37  93 CALM      30.06S
ANN ARBOR      PTCLDY    32  29  88 W3        30.07F
BAD AXE        CLOUDY    32  32 100 CALM      30.06F FOG
CARO           MOCLDY    32  32  97 CALM      30.05S
DETROIT CITY   MOCLDY    40  35  83 CALM      30.08F
DETROIT        CLOUDY    38  35  89 CALM      30.09S
FLINT          PTCLDY    36  33  89 CALM      30.07F
GROSSE ILE     PTCLDY    41  37  87 CALM      30.07S
HILLSDALE      CLEAR     35  35 100 CALM      30.07F FOG
HOWELL         CLEAR     38  36  91 S3        30.06S

CITY           SKY/WX    TMP DP  RH WIND       PRES   REMARKS
JACKSON        PTCLDY    33  31  92 CALM      30.06F
LAMBERTVILLE   MOCLDY    37  34  87 CALM      30.09F FOG
LANSING        CLEAR     41  36  82 CALM      30.07F
LAPEER         FAIR      32  32  99 CALM      30.06F
MASON          CLEAR     36  35  94 CALM      30.06F
MT. CLEMENS    MOCLDY    37  37  99 W3        30.05F
PONTIAC        PTCLDY    36  32  85 CALM      30.06F
PORT HOPE        N/A     41  38  89 SW5       30.04F
PORT HURON     CLOUDY    32  32 100 CALM      30.08S FOG
TRI CITIES     CLOUDY    43  37  79 SW3       30.06S
TROY           PTCLDY    40  36  86 CALM      30.09S
SAGINAW HB     MOCLDY    37  37 100 CALM      30.05S
$$
MIZ043>046-050>051-056>058-064>065-071>073-077>080-241000-
SOUTHWEST LOWER MICHIGAN

CITY           SKY/WX    TMP DP  RH WIND       PRES   REMARKS
BATTLE CREEK   PTCLDY    42  37  82 S3        30.07S HAZE
BENTON HARBOR  CLOUDY    51  42  71 S6        30.05S
BIG RAPIDS     CLOUDY    45  45 100 CALM      30.03S
COLDWATER      CLOUDY    43  42  97 CALM      30.07F FOG
FREMONT        CLOUDY    47  44  89 CALM      30.04R
HOLLAND        CLOUDY    52  44  74 CALM      30.05S
GRAND RAPIDS   CLOUDY    47  42  83 CALM      30.05S
IONIA          CLOUDY    44  41  89 CALM      30.05S
KALAMAZOO      MOCLDY    46  41  82 S5        30.07R HAZE
LUDINGTON      CLOUDY    52  48  87 SW5       30.04R
MARSHALL       CLOUDY    39  38  97 CALM      30.06S FOG
MOUNT PLEASANT CLOUDY    43  41  92 CALM      30.03F
MUSKEGON       CLOUDY    55  48  77 SW6       30.04S
SOUTH HAVEN    CLOUDY    53  45  74 S3        30.04F
$$
MIZ016>042-241000-
NORTHERN LOWER MICHIGAN

CITY           SKY/WX    TMP DP  RH WIND       PRES   REMARKS
ALPENA         CLOUDY    36  35  96 CALM      30.03S
BEAVER ISLAND  CLOUDY    51  49  92 SW6       30.00F
BELLAIRE       CLOUDY    46  43  90 CALM      30.03S
CADILLAC       CLOUDY    46  43  91 S6        30.02S
CHARLEVOIX     CLOUDY    48  44  84 CALM      30.04S
FRANKFORT      CLOUDY    53  47  82 SW5       30.02S
GAYLORD        CLOUDY    43  38  82 SW3       30.02S
GRAYLING       CLOUDY    40  38  93 CALM      30.03F
HARBOR SPRINGS CLOUDY    46  41  85 CALM      30.02R
HOUGHTON LAKE  CLOUDY    39  38  96 CALM      30.04S
OSCODA         CLOUDY    39  37  95 SW5       30.04R
PELLSTON       CLOUDY    42  40  92 SE3       30.02S
TRAVERSE CITY  CLOUDY    50  43  77 CALM      30.01F
$$
MIZ007>008-015-241000-
EASTERN UPPER MICHIGAN

CITY           SKY/WX    TMP DP  RH WIND       PRES   REMARKS
KINROSS        CLOUDY    45  43  93 SE5       30.00F
MACKINAC ISLAN CLOUDY    48  43  84 S5        30.00F
NEWBERRY       CLOUDY    47  47  98 SW6       29.98F FOG
S. S. MARIE    CLOUDY    42  39  89 NE3       30.00F
MUNISING         N/A     49  45  86 SW5       29.98S
$$
MIZ004>006-011>014-085-241000-
CENTRAL UPPER MICHIGAN

CITY           SKY/WX    TMP DP  RH WIND       PRES   REMARKS
MANISTIQUE     CLOUDY    48  48  98 SW3       29.99F FOG
ESCANABA       CLOUDY    46  45  93 SW5       29.99S
MENOMINEE      CLOUDY    48  45  87 SW3       29.99F
SAWYER-GWINN   FOG       43  42  96 W5        29.97S VSB 3/4
$$
MIZ001>003-009>011-084-241000-
WESTERN UPPER MICHIGAN

CITY           SKY/WX    TMP DP  RH WIND       PRES   REMARKS
IRON MOUNTAIN  CLOUDY    45  43  93 NW8       29.98S FOG
HOUGHTON       FOG       45  44  97 S6        29.94F VSB 1/4
COPPER HARBOR    N/A     48  45  89 CALM      29.94F
IRONWOOD       MOCLDY    46  46 100 S8        29.93S
$$

ABBREVIATIONS USED IN REMARKS
   TC - TEMPERATURE IN CELSIUS
  WCI - WIND CHILL INDEX
   HX - HEAT INDEX
  VSB - VISIBILITY




USA.gov is the U.S. government's official web portal to all federal, state and local government web resources and services.